GFSMA_prec_pwat_162.txt.gz
Precipitable_Water
1.26 1.26 1.33 1.41 1.46 1.51 1.49 1.57 1.73 1.69 1.71 1.73 1.71 1.66 1.55 1.50 1.55 1.63 1.69 1.73 1.82 1.78 1.79 1.88 1.95 1.93 1.91 1.88 1.88 1.85 1.83 1.80 1.75 1.69 1.68 1.65 1.65 1.65 1.60 1.49 1.39 1.44 1.47
1.26 1.24 1.29 1.38 1.46 1.54 1.54 1.55 1.59 1.64 1.65 1.63 1.58 1.62 1.50 1.50 1.67 1.67 1.78 1.79 1.72 1.77 1.79 1.79 1.81 1.85 1.87 1.87 1.87 1.88 1.92 1.87 1.76 1.63 1.53 1.59 1.59 1.59 1.58 1.40 1.39 1.48 1.47
1.34 1.29 1.32 1.42 1.48 1.60 1.61 1.50 1.51 1.57 1.52 1.51 1.43 1.40 1.46 1.45 1.60 1.67 1.85 1.79 1.76 1.82 1.69 1.70 1.76 1.80 1.82 1.80 1.78 1.82 1.83 1.82 1.78 1.57 1.47 1.49 1.51 1.55 1.53 1.38 1.44 1.48 1.50
1.46 1.31 1.30 1.46 1.60 1.64 1.59 1.49 1.48 1.50 1.46 1.40 1.34 1.35 1.40 1.46 1.58 1.57 1.77 1.76 1.82 1.75 1.81 1.81 1.80 1.85 1.89 1.90 1.85 1.83 1.79 1.80 1.75 1.65 1.45 1.48 1.47 1.56 1.48 1.42 1.45 1.50 1.53
1.53 1.40 1.35 1.40 1.58 1.72 1.55 1.46 1.49 1.54 1.47 1.40 1.36 1.39 1.41 1.44 1.56 1.62 1.72 1.77 1.77 1.72 1.79 1.89 1.78 1.86 1.96 1.99 1.91 1.89 1.87 1.83 1.80 1.71 1.58 1.44 1.49 1.53 1.51 1.49 1.52 1.55 1.56
1.60 1.68 1.66 1.52 1.57 1.73 1.63 1.45 1.57 1.71 1.59 1.38 1.38 1.41 1.49 1.57 1.70 1.65 1.58 1.72 1.78 1.77 1.76 1.81 1.89 1.96 2.03 2.03 1.99 1.97 1.96 1.99 1.95 1.87 1.77 1.47 1.47 1.55 1.59 1.56 1.52 1.51 1.56
1.55 1.75 1.64 1.57 1.68 1.62 1.65 1.58 1.48 1.53 1.48 1.50 1.46 1.50 1.45 1.55 1.65 1.63 1.73 1.76 1.66 1.80 1.68 1.75 1.85 2.01 2.07 2.06 2.01 2.00 1.99 2.03 2.05 2.06 2.00 1.85 1.65 1.48 1.52 1.57 1.62 1.64 1.63
1.53 1.71 1.65 1.71 1.69 1.69 1.71 1.63 1.62 1.36 1.43 1.59 1.44 1.39 1.21 1.30 1.53 1.57 1.79 1.82 1.79 1.69 1.70 1.71 1.77 1.98 2.07 2.09 2.10 2.04 1.93 1.95 2.02 2.09 2.08 2.05 2.01 1.88 1.70 1.52 1.49 1.53 1.55
1.64 1.49 1.53 1.60 1.61 1.69 1.62 1.71 1.66 1.51 1.33 1.49 1.57 1.37 1.07 0.99 1.17 1.43 1.53 1.70 1.68 1.68 1.67 1.69 1.77 1.90 2.11 2.14 2.15 2.18 2.13 2.03 2.01 2.04 2.05 2.05 2.07 2.09 2.07 1.98 1.82 1.70 1.63
1.65 1.55 1.49 1.47 1.52 1.54 1.55 1.47 1.52 1.55 1.56 1.30 1.43 1.56 1.51 1.40 1.06 1.04 1.40 1.52 1.56 1.63 1.66 1.68 1.72 1.82 2.07 2.17 2.19 2.13 2.14 2.09 2.03 2.01 2.03 1.98 1.97 2.00 2.07 2.10 2.10 1.99 1.86
1.64 1.60 1.54 1.49 1.38 1.40 1.50 1.42 1.35 1.37 1.48 1.42 1.35 1.40 1.47 1.55 1.43 1.21 1.07 1.28 1.45 1.53 1.63 1.69 1.68 1.77 2.02 2.11 2.12 2.14 2.09 2.08 2.07 2.04 2.05 2.03 1.97 1.98 1.96 1.98 2.07 2.10 2.06
1.60 1.56 1.55 1.47 1.45 1.42 1.35 1.37 1.39 1.29 1.31 1.40 1.41 1.35 1.35 1.31 1.41 1.39 1.25 1.22 1.26 1.43 1.55 1.66 1.72 1.84 1.90 2.09 2.14 2.12 2.05 2.05 2.12 2.05 2.04 2.01 1.97 1.98 2.01 2.02 2.01 2.01 2.02
1.49 1.48 1.50 1.43 1.43 1.49 1.43 1.40 1.33 1.32 1.27 1.25 1.32 1.29 1.38 1.37 1.50 1.48 1.41 1.28 1.21 1.35 1.40 1.59 1.68 1.83 1.95 2.04 2.13 2.20 2.13 2.10 2.17 2.16 2.06 1.98 2.04 2.04 2.02 2.00 2.00 1.99 1.96
1.54 1.68 1.60 1.70 1.70 1.72 1.69 1.54 1.45 1.40 1.40 1.31 1.27 1.33 1.43 1.40 1.44 1.45 1.36 1.30 1.18 1.24 1.30 1.30 1.61 1.74 1.90 2.00 2.15 2.22 2.20 2.15 2.23 2.26 2.05 1.97 2.01 2.03 1.99 2.01 1.98 1.92 1.88
1.72 1.75 1.75 1.73 1.85 1.82 1.75 1.68 1.53 1.46 1.49 1.45 1.35 1.43 1.50 1.52 1.53 1.51 1.53 1.49 1.35 1.18 1.22 1.36 1.39 1.67 1.81 1.97 2.09 2.16 2.18 2.20 2.20 2.15 1.98 1.97 2.07 2.10 1.99 1.93 1.88 1.85 1.84
1.68 1.75 1.79 1.79 1.76 1.83 1.82 1.73 1.66 1.63 1.58 1.52 1.50 1.46 1.49 1.55 1.56 1.60 1.62 1.67 1.61 1.44 1.33 1.58 1.52 1.70 1.89 2.06 2.18 2.21 2.20 2.15 2.17 2.04 2.02 2.05 2.10 2.03 1.97 1.91 1.85 1.83 1.81
1.61 1.60 1.63 1.67 1.70 1.73 1.79 1.77 1.74 1.71 1.65 1.64 1.61 1.54 1.45 1.54 1.50 1.59 1.70 1.75 1.77 1.69 1.42 1.61 1.71 1.65 1.65 1.81 2.04 2.10 2.20 2.25 2.19 2.11 2.12 2.01 1.94 1.92 1.88 1.82 1.81 1.80 1.79
1.55 1.54 1.56 1.57 1.61 1.63 1.72 1.79 1.70 1.72 1.69 1.64 1.67 1.61 1.58 1.53 1.42 1.50 1.62 1.63 1.62 1.71 1.67 1.52 1.70 1.64 1.63 1.77 1.93 1.97 2.12 2.22 2.15 2.13 2.09 1.93 1.88 1.86 1.82 1.76 1.76 1.75 1.75
1.51 1.53 1.54 1.55 1.54 1.55 1.57 1.66 1.73 1.72 1.73 1.77 1.76 1.63 1.62 1.59 1.45 1.43 1.52 1.55 1.60 1.66 1.69 1.66 1.57 1.69 1.64 1.82 1.93 2.05 2.05 2.12 2.09 2.12 2.06 1.84 1.80 1.79 1.73 1.70 1.68 1.66 1.66
1.70 1.77 1.76 1.76 1.65 1.59 1.63 1.66 1.64 1.69 1.71 1.72 1.78 1.74 1.68 1.60 1.52 1.46 1.47 1.48 1.53 1.54 1.55 1.58 1.55 1.54 1.63 1.79 1.92 1.85 1.89 1.97 1.94 2.02 1.90 1.74 1.73 1.74 1.68 1.65 1.60 1.62 1.61
1.87 1.91 1.85 1.85 1.75 1.71 1.62 1.65 1.69 1.68 1.71 1.70 1.72 1.75 1.75 1.78 1.72 1.64 1.58 1.55 1.61 1.57 1.51 1.52 1.49 1.54 1.56 1.59 1.65 1.84 1.86 1.90 1.91 1.95 1.79 1.67 1.69 1.69 1.68 1.62 1.62 1.55 1.42
1.57 1.59 1.57 1.60 1.61 1.67 1.71 1.65 1.71 1.73 1.73 1.73 1.69 1.69 1.74 1.76 1.76 1.76 1.73 1.72 1.72 1.63 1.53 1.49 1.49 1.48 1.52 1.57 1.69 1.73 1.80 1.71 1.61 1.92 1.71 1.60 1.71 1.62 1.61 1.59 1.49 1.35 1.28
1.56 1.52 1.50 1.45 1.37 1.46 1.66 1.71 1.78 1.80 1.74 1.73 1.69 1.70 1.74 1.85 1.85 1.84 1.78 1.77 1.75 1.78 1.79 1.71 1.55 1.54 1.56 1.64 1.69 1.67 1.71 1.70 1.67 1.78 1.73 1.56 1.70 1.57 1.59 1.50 1.45 1.35 1.36
1.47 1.40 1.26 1.19 1.18 1.23 1.36 1.42 1.51 1.70 1.78 1.87 1.89 1.89 1.93 1.86 1.90 1.92 1.92 1.83 1.76 1.73 1.72 1.73 1.74 1.71 1.71 1.79 1.77 1.74 1.72 1.75 1.76 1.77 1.81 1.55 1.73 1.58 1.57 1.52 1.48 1.41 1.35
1.08 1.00 0.97 0.92 0.86 0.83 0.88 0.98 1.06 1.14 1.22 1.36 1.59 1.77 1.94 1.86 1.97 2.09 1.95 1.82 1.79 1.80 1.91 1.87 1.79 1.77 1.82 1.87 1.85 1.80 1.66 1.60 1.58 1.72 1.86 1.73 1.73 1.57 1.55 1.49 1.47 1.42 1.33
0.98 0.89 0.81 0.83 0.82 0.76 0.77 0.77 0.80 0.80 0.74 0.80 0.96 1.20 1.48 1.60 1.82 2.00 1.88 1.78 1.64 1.78 1.86 1.87 1.89 1.87 1.88 1.88 1.90 1.90 1.82 1.70 1.65 1.64 1.84 1.73 1.69 1.59 1.41 1.49 1.46 1.40 1.27

GFSMA_prec_pwat_165.txt.gz
Precipitable_Water
1.32 1.34 1.31 1.41 1.45 1.53 1.56 1.64 1.73 1.76 1.72 1.76 1.78 1.79 1.68 1.56 1.61 1.75 1.88 1.88 1.90 1.90 1.84 1.84 1.97 2.01 2.02 2.00 1.94 1.94 1.97 1.84 1.76 1.64 1.68 1.70 1.66 1.66 1.65 1.55 1.43 1.49 1.52
1.30 1.31 1.34 1.44 1.49 1.52 1.57 1.66 1.67 1.69 1.66 1.64 1.63 1.73 1.62 1.69 1.75 1.77 1.94 1.94 1.93 1.81 1.74 1.79 1.84 1.92 1.95 1.99 1.99 1.98 1.95 1.83 1.69 1.48 1.54 1.56 1.57 1.62 1.60 1.40 1.41 1.49 1.51
1.32 1.35 1.38 1.46 1.52 1.55 1.52 1.57 1.58 1.64 1.60 1.58 1.49 1.50 1.57 1.56 1.62 1.70 1.89 1.90 1.91 1.85 1.90 1.93 1.90 1.92 1.91 1.94 1.91 1.91 1.87 1.85 1.77 1.50 1.47 1.49 1.51 1.60 1.48 1.43 1.46 1.52 1.52
1.40 1.33 1.34 1.43 1.55 1.53 1.56 1.46 1.45 1.50 1.54 1.48 1.43 1.46 1.50 1.53 1.59 1.64 1.77 1.81 1.80 1.81 1.90 1.99 1.98 1.98 1.97 1.95 1.95 1.91 1.82 1.80 1.75 1.57 1.44 1.43 1.52 1.60 1.50 1.47 1.51 1.57 1.55
1.47 1.37 1.33 1.44 1.58 1.67 1.63 1.48 1.43 1.50 1.46 1.44 1.40 1.46 1.51 1.52 1.67 1.72 1.74 1.79 1.82 1.77 1.81 1.87 1.98 2.04 2.07 2.01 2.02 1.96 1.91 1.88 1.83 1.69 1.48 1.47 1.55 1.58 1.53 1.53 1.55 1.57 1.57
1.60 1.47 1.43 1.48 1.52 1.71 1.63 1.50 1.49 1.68 1.61 1.46 1.39 1.42 1.51 1.60 1.74 1.65 1.71 1.80 1.80 1.77 1.77 1.82 2.02 2.11 2.14 2.15 2.08 1.98 1.94 1.99 2.00 1.91 1.79 1.49 1.51 1.60 1.64 1.61 1.57 1.54 1.58
1.64 1.63 1.73 1.62 1.57 1.60 1.69 1.62 1.57 1.53 1.54 1.56 1.45 1.51 1.57 1.57 1.67 1.72 1.82 1.83 1.78 1.71 1.76 1.80 1.95 2.11 2.21 2.19 2.13 2.00 1.91 1.99 2.05 2.07 2.00 1.90 1.74 1.53 1.54 1.60 1.65 1.66 1.66
1.67 1.55 1.73 1.62 1.62 1.66 1.70 1.70 1.65 1.47 1.43 1.58 1.42 1.45 1.27 1.35 1.58 1.60 1.69 1.78 1.75 1.73 1.70 1.78 1.90 2.09 2.14 2.26 2.24 2.18 2.09 2.02 2.00 2.08 2.06 2.02 2.02 1.96 1.82 1.62 1.51 1.53 1.56
1.63 1.58 1.72 1.69 1.71 1.77 1.67 1.72 1.72 1.64 1.42 1.52 1.55 1.50 1.17 1.06 1.24 1.47 1.49 1.62 1.71 1.76 1.79 1.82 1.81 2.01 2.19 2.21 2.21 2.18 2.11 2.09 2.02 2.02 2.01 1.99 2.00 2.05 2.07 2.04 1.92 1.76 1.67
1.69 1.61 1.52 1.56 1.53 1.57 1.56 1.65 1.75 1.64 1.53 1.43 1.46 1.56 1.55 1.50 1.25 1.15 1.45 1.51 1.58 1.60 1.72 1.72 1.73 1.86 2.12 2.19 2.21 2.16 2.12 2.06 2.04 2.05 2.05 2.01 1.95 1.94 1.95 2.02 2.09 2.08 1.95
1.77 1.69 1.62 1.57 1.50 1.47 1.44 1.48 1.55 1.43 1.44 1.44 1.47 1.40 1.37 1.43 1.54 1.42 1.18 1.30 1.48 1.58 1.66 1.71 1.73 1.78 1.98 2.11 2.18 2.17 2.12 2.09 2.09 2.05 2.07 2.07 2.05 2.03 2.03 2.02 1.97 2.04 2.06
1.70 1.69 1.64 1.59 1.53 1.45 1.42 1.41 1.44 1.40 1.38 1.35 1.38 1.47 1.42 1.32 1.31 1.36 1.36 1.41 1.33 1.34 1.52 1.64 1.69 1.77 1.90 2.01 2.11 2.17 2.16 2.05 2.07 2.14 2.11 2.02 2.02 2.06 2.05 2.03 2.01 1.99 1.99
1.59 1.64 1.67 1.61 1.55 1.50 1.52 1.50 1.40 1.35 1.32 1.29 1.29 1.27 1.38 1.34 1.41 1.38 1.35 1.34 1.27 1.31 1.34 1.57 1.67 1.76 1.89 2.05 2.07 2.17 2.23 2.15 2.10 2.17 2.16 2.04 2.04 2.04 2.02 2.03 2.01 1.99 1.97
1.54 1.65 1.60 1.65 1.57 1.57 1.59 1.63 1.53 1.44 1.41 1.41 1.39 1.32 1.27 1.32 1.45 1.45 1.36 1.27 1.14 1.24 1.33 1.34 1.57 1.63 1.78 1.93 2.05 2.12 2.18 2.18 2.10 2.23 2.19 2.04 1.96 2.10 2.07 1.99 1.95 1.89 1.85
1.58 1.60 1.70 1.70 1.70 1.79 1.82 1.74 1.65 1.52 1.46 1.43 1.43 1.46 1.39 1.37 1.51 1.56 1.56 1.46 1.28 1.07 1.15 1.46 1.43 1.71 1.81 1.88 2.03 2.15 2.22 2.18 2.19 2.21 2.14 1.99 2.03 2.10 2.04 1.97 1.89 1.83 1.82
1.66 1.68 1.72 1.76 1.77 1.76 1.78 1.85 1.78 1.69 1.59 1.51 1.49 1.46 1.47 1.52 1.53 1.62 1.59 1.66 1.64 1.49 1.30 1.51 1.60 1.74 1.83 1.85 1.96 2.13 2.23 2.19 2.21 2.14 2.06 2.08 2.04 1.96 1.92 1.86 1.83 1.82 1.83
1.59 1.63 1.66 1.68 1.70 1.74 1.78 1.77 1.77 1.75 1.72 1.61 1.59 1.57 1.50 1.52 1.50 1.54 1.59 1.60 1.66 1.72 1.58 1.64 1.71 1.80 1.83 1.79 1.79 1.94 2.07 2.11 2.22 2.24 2.16 2.14 2.04 1.90 1.85 1.83 1.79 1.76 1.78
1.57 1.59 1.62 1.59 1.55 1.55 1.60 1.64 1.62 1.70 1.73 1.71 1.71 1.66 1.60 1.61 1.53 1.55 1.46 1.40 1.50 1.66 1.64 1.52 1.72 1.80 1.83 1.88 1.86 1.86 2.02 2.11 2.16 2.19 2.13 2.09 2.02 1.84 1.78 1.78 1.73 1.71 1.69
1.47 1.48 1.51 1.51 1.53 1.57 1.61 1.62 1.59 1.58 1.65 1.71 1.70 1.67 1.72 1.71 1.58 1.57 1.57 1.44 1.41 1.55 1.62 1.56 1.57 1.76 1.82 1.90 1.75 1.80 1.95 2.08 2.17 2.16 2.12 2.03 1.96 1.81 1.69 1.70 1.67 1.67 1.65
1.60 1.60 1.63 1.71 1.79 1.84 1.90 1.86 1.71 1.68 1.69 1.69 1.72 1.74 1.73 1.73 1.75 1.63 1.59 1.55 1.49 1.44 1.46 1.45 1.49 1.57 1.64 1.82 1.73 1.62 1.70 1.97 2.00 2.09 2.02 1.99 1.91 1.77 1.67 1.64 1.65 1.64 1.57
1.87 1.86 1.84 1.91 1.94 1.91 1.88 1.85 1.81 1.72 1.66 1.72 1.73 1.75 1.76 1.77 1.82 1.78 1.68 1.63 1.58 1.49 1.45 1.46 1.48 1.52 1.54 1.56 1.51 1.62 1.61 1.76 1.91 2.02 1.99 1.92 1.87 1.76 1.69 1.65 1.66 1.55 1.47
1.86 1.82 1.71 1.63 1.60 1.59 1.63 1.61 1.65 1.67 1.71 1.68 1.63 1.69 1.75 1.80 1.77 1.74 1.73 1.73 1.69 1.56 1.51 1.50 1.48 1.50 1.52 1.59 1.68 1.64 1.58 1.53 1.52 1.93 1.91 1.83 1.84 1.71 1.67 1.66 1.63 1.44 1.28
1.70 1.60 1.62 1.59 1.56 1.54 1.46 1.43 1.48 1.50 1.53 1.69 1.62 1.69 1.71 1.74 1.78 1.76 1.81 1.80 1.78 1.74 1.73 1.69 1.55 1.57 1.60 1.71 1.72 1.68 1.64 1.59 1.60 1.79 1.84 1.72 1.80 1.67 1.67 1.68 1.53 1.40 1.27
1.65 1.60 1.52 1.42 1.29 1.21 1.12 1.01 0.99 1.02 1.15 1.35 1.50 1.66 1.76 1.78 1.85 1.82 1.88 1.83 1.86 1.84 1.84 1.82 1.73 1.69 1.78 1.85 1.84 1.82 1.76 1.73 1.77 1.80 1.87 1.60 1.73 1.61 1.63 1.60 1.54 1.45 1.36
1.50 1.33 1.17 1.04 0.97 0.89 0.83 0.84 0.82 0.77 0.74 0.78 0.97 1.15 1.35 1.54 1.81 1.96 1.98 1.83 1.88 1.91 2.01 1.98 1.98 1.94 1.91 1.92 1.86 1.82 1.69 1.58 1.53 1.62 1.82 1.73 1.72 1.65 1.64 1.55 1.56 1.51 1.45
1.21 1.07 0.97 0.89 0.78 0.75 0.78 0.76 0.75 0.73 0.69 0.69 0.70 0.76 0.83 0.93 1.23 1.51 1.72 1.82 1.86 1.85 1.96 1.99 1.88 1.91 2.03 2.07 2.10 2.03 1.87 1.60 1.57 1.55 1.82 1.73 1.72 1.68 1.48 1.58 1.56 1.53 1.47

GFSMA_prec_pwat_168.txt.gz
Precipitable_Water
1.41 1.38 1.38 1.50 1.52 1.60 1.69 1.73 1.77 1.80 1.77 1.79 1.84 1.84 1.78 1.68 1.70 1.91 1.99 1.91 1.81 1.76 1.83 1.83 1.82 1.95 2.06 2.00 1.99 1.98 1.96 1.84 1.70 1.63 1.71 1.72 1.67 1.64 1.62 1.60 1.47 1.47 1.48
1.37 1.34 1.35 1.49 1.54 1.59 1.65 1.68 1.68 1.72 1.70 1.68 1.68 1.74 1.68 1.74 1.78 1.83 1.94 2.04 1.90 1.84 1.89 1.83 1.82 1.81 1.97 1.97 1.95 1.95 1.87 1.82 1.63 1.57 1.62 1.60 1.60 1.58 1.53 1.47 1.41 1.47 1.50
1.35 1.43 1.45 1.54 1.58 1.59 1.59 1.63 1.66 1.67 1.68 1.64 1.55 1.52 1.58 1.57 1.67 1.70 1.86 1.90 1.97 1.92 1.87 1.89 1.88 1.89 1.86 1.89 1.91 1.90 1.89 1.78 1.63 1.50 1.51 1.50 1.51 1.53 1.46 1.39 1.42 1.50 1.56
1.45 1.43 1.45 1.53 1.60 1.54 1.54 1.50 1.49 1.54 1.58 1.60 1.48 1.48 1.55 1.62 1.71 1.79 1.82 1.87 1.86 1.83 1.88 1.95 1.99 2.02 2.00 1.95 1.86 1.88 1.85 1.80 1.69 1.48 1.48 1.46 1.57 1.55 1.42 1.41 1.49 1.57 1.61
1.49 1.44 1.45 1.46 1.55 1.58 1.63 1.52 1.50 1.55 1.60 1.52 1.46 1.47 1.61 1.67 1.70 1.79 1.77 1.86 1.87 1.83 1.83 2.01 2.05 2.13 2.11 2.08 2.00 2.01 1.99 1.96 1.87 1.66 1.45 1.49 1.56 1.52 1.48 1.52 1.58 1.64 1.65
1.50 1.40 1.37 1.44 1.56 1.65 1.70 1.53 1.49 1.61 1.67 1.67 1.53 1.47 1.60 1.68 1.75 1.79 1.82 1.89 1.85 1.83 1.89 1.94 2.12 2.16 2.13 2.15 2.11 2.03 1.99 2.02 2.03 1.94 1.77 1.48 1.52 1.59 1.60 1.57 1.56 1.55 1.59
1.59 1.54 1.57 1.57 1.47 1.54 1.72 1.65 1.59 1.62 1.65 1.70 1.56 1.57 1.66 1.65 1.73 1.77 1.87 1.86 1.79 1.80 1.86 1.94 2.14 2.11 2.33 2.25 2.24 2.19 2.08 2.01 2.04 2.04 1.98 1.93 1.78 1.58 1.56 1.60 1.64 1.66 1.67
1.72 1.58 1.73 1.74 1.56 1.68 1.70 1.71 1.61 1.52 1.47 1.65 1.47 1.48 1.47 1.47 1.61 1.65 1.66 1.77 1.81 1.82 1.82 1.87 1.98 2.18 2.19 2.18 2.32 2.21 2.15 2.13 2.00 2.04 2.02 1.99 2.01 2.00 1.90 1.71 1.57 1.54 1.57
1.85 1.73 1.72 1.76 1.71 1.73 1.77 1.73 1.77 1.64 1.57 1.54 1.60 1.45 1.27 1.15 1.28 1.58 1.60 1.63 1.70 1.81 1.84 1.86 1.89 2.04 2.15 2.27 2.29 2.23 2.13 2.10 2.06 2.03 2.02 1.97 1.94 1.97 2.02 2.04 1.99 1.85 1.72
1.80 1.68 1.67 1.76 1.70 1.66 1.62 1.63 1.79 1.73 1.62 1.46 1.49 1.59 1.57 1.54 1.30 1.25 1.54 1.59 1.66 1.69 1.79 1.79 1.80 1.92 2.09 2.19 2.32 2.28 2.13 2.09 2.13 2.06 2.07 2.08 2.04 2.01 1.99 1.96 2.01 2.08 2.04
1.87 1.68 1.65 1.58 1.60 1.58 1.56 1.51 1.58 1.64 1.62 1.43 1.40 1.41 1.40 1.38 1.48 1.39 1.28 1.44 1.53 1.56 1.64 1.80 1.83 1.86 2.00 2.12 2.21 2.15 2.10 2.06 2.11 2.13 2.07 2.04 2.03 2.03 2.06 2.04 2.03 1.98 2.02
1.83 1.80 1.73 1.64 1.61 1.59 1.53 1.52 1.50 1.46 1.40 1.35 1.38 1.40 1.36 1.32 1.34 1.33 1.29 1.32 1.41 1.47 1.54 1.67 1.78 1.82 1.91 2.07 2.14 2.14 2.21 2.20 2.07 2.14 2.19 2.08 2.05 2.07 2.06 2.06 2.05 2.01 2.02
1.68 1.70 1.71 1.66 1.59 1.62 1.52 1.49 1.49 1.43 1.38 1.29 1.30 1.22 1.30 1.33 1.36 1.30 1.22 1.20 1.21 1.37 1.36 1.45 1.69 1.79 1.85 2.00 2.14 2.13 2.24 2.23 2.25 2.12 2.24 2.14 2.08 2.04 2.10 2.04 2.04 2.02 1.97
1.64 1.72 1.78 1.78 1.72 1.69 1.62 1.60 1.63 1.64 1.55 1.46 1.42 1.44 1.37 1.33 1.37 1.38 1.36 1.25 1.15 1.18 1.31 1.40 1.61 1.69 1.75 1.89 1.94 1.98 2.19 2.19 2.19 2.15 2.21 2.15 2.07 2.07 2.13 2.09 1.99 1.89 1.85
1.70 1.70 1.71 1.69 1.67 1.70 1.69 1.76 1.77 1.70 1.70 1.61 1.56 1.53 1.52 1.49 1.42 1.47 1.54 1.47 1.33 1.12 1.17 1.39 1.50 1.90 1.83 1.91 1.94 1.98 2.21 2.20 2.18 2.16 2.21 2.15 2.06 2.04 2.05 1.99 1.91 1.86 1.85
1.71 1.74 1.68 1.69 1.74 1.77 1.76 1.79 1.79 1.88 1.84 1.73 1.64 1.62 1.59 1.56 1.55 1.53 1.53 1.58 1.57 1.55 1.41 1.59 1.70 1.79 1.91 1.93 2.03 1.94 2.02 2.17 2.12 2.16 2.15 2.10 2.09 2.09 1.95 1.86 1.83 1.80 1.77
1.60 1.69 1.72 1.75 1.76 1.81 1.85 1.83 1.80 1.77 1.78 1.83 1.81 1.70 1.60 1.71 1.63 1.62 1.59 1.56 1.54 1.55 1.47 1.62 1.87 1.95 1.87 1.90 2.03 2.00 1.94 1.99 2.03 2.08 2.18 2.24 2.14 2.06 1.91 1.80 1.82 1.76 1.75
1.62 1.59 1.64 1.66 1.68 1.70 1.72 1.67 1.62 1.61 1.64 1.67 1.72 1.83 1.82 1.80 1.73 1.68 1.66 1.58 1.59 1.48 1.37 1.36 1.64 1.73 1.81 1.93 2.09 2.04 1.88 1.94 2.03 2.08 2.13 2.17 2.08 1.99 1.96 1.84 1.74 1.73 1.74
1.54 1.59 1.60 1.57 1.57 1.57 1.59 1.62 1.64 1.65 1.65 1.61 1.61 1.68 1.75 1.76 1.72 1.72 1.78 1.66 1.65 1.67 1.52 1.39 1.42 1.65 1.74 1.88 1.92 1.94 1.92 1.81 1.95 2.07 2.15 2.15 2.09 2.01 1.93 1.83 1.67 1.66 1.67
1.47 1.49 1.54 1.54 1.54 1.61 1.71 1.78 1.86 1.93 1.92 1.84 1.79 1.71 1.69 1.70 1.71 1.73 1.78 1.80 1.73 1.59 1.58 1.50 1.43 1.41 1.57 1.74 1.86 1.68 1.63 1.74 1.71 1.88 1.99 2.03 2.04 1.98 1.92 1.81 1.73 1.69 1.64
1.76 1.72 1.72 1.79 1.84 1.88 1.94 1.94 1.95 1.89 1.74 1.74 1.73 1.80 1.79 1.81 1.77 1.77 1.76 1.78 1.80 1.73 1.58 1.47 1.43 1.42 1.47 1.59 1.58 1.71 1.63 1.63 1.68 1.75 1.74 1.85 1.94 1.94 1.90 1.84 1.78 1.69 1.62
1.90 1.91 1.91 1.92 1.89 1.92 1.71 1.68 1.58 1.51 1.49 1.44 1.43 1.54 1.68 1.74 1.77 1.72 1.74 1.76 1.77 1.74 1.68 1.55 1.47 1.45 1.53 1.62 1.69 1.72 1.65 1.55 1.40 1.76 1.68 1.65 1.77 1.78 1.81 1.82 1.74 1.67 1.55
1.96 1.92 1.87 1.83 1.67 1.67 1.59 1.55 1.45 1.38 1.34 1.34 1.34 1.37 1.42 1.60 1.74 1.72 1.80 1.82 1.82 1.77 1.77 1.72 1.60 1.55 1.56 1.67 1.77 1.81 1.72 1.66 1.60 1.72 1.73 1.57 1.70 1.66 1.77 1.80 1.74 1.60 1.40
1.83 1.81 1.88 1.71 1.67 1.60 1.39 1.24 1.16 1.08 0.96 0.96 1.03 1.10 1.14 1.24 1.54 1.66 1.69 1.76 1.84 1.84 1.82 1.82 1.77 1.80 1.86 1.87 1.82 1.84 1.85 1.84 1.88 1.86 1.85 1.53 1.68 1.62 1.69 1.75 1.68 1.50 1.36
1.55 1.64 1.70 1.61 1.47 1.31 1.15 0.98 0.86 0.79 0.80 0.79 0.79 0.79 0.81 0.86 1.01 1.26 1.46 1.47 1.71 1.88 2.04 2.08 2.06 2.04 2.02 2.04 2.10 2.05 1.85 1.78 1.67 1.67 1.80 1.65 1.62 1.58 1.64 1.66 1.64 1.50 1.42
1.58 1.56 1.48 1.37 1.20 1.03 0.93 0.82 0.80 0.81 0.72 0.68 0.71 0.72 0.73 0.73 0.77 0.84 1.03 1.24 1.32 1.58 1.91 2.00 2.05 2.14 2.09 2.07 2.04 2.05 1.94 1.81 1.81 1.72 1.89 1.74 1.65 1.61 1.47 1.62 1.61 1.52 1.54

GFSMA_prec_pwat_171.txt.gz
Precipitable_Water
1.51 1.39 1.46 1.55 1.71 1.60 1.78 1.75 1.78 1.90 1.77 2.30 1.85 1.63 1.76 1.71 1.66 1.86 2.21 1.87 1.76 1.80 1.87 1.81 1.79 1.85 1.95 1.99 1.95 1.89 1.83 1.72 1.64 1.69 1.71 1.73 1.73 1.69 1.67 1.65 1.54 1.37 1.42
1.48 1.44 1.42 1.53 1.62 1.65 1.73 1.74 1.75 1.76 1.65 1.64 1.73 1.72 1.60 1.77 1.70 1.66 1.87 2.00 1.99 1.83 1.86 1.89 1.88 1.79 1.85 1.93 1.93 1.88 1.83 1.68 1.48 1.42 1.52 1.58 1.55 1.56 1.54 1.49 1.36 1.40 1.46
1.44 1.48 1.45 1.58 1.64 1.63 1.55 1.70 1.68 1.64 1.75 1.69 1.67 1.63 1.70 1.66 1.83 1.76 1.83 1.97 2.04 1.96 1.89 1.92 1.98 1.97 1.83 1.85 1.85 1.84 1.80 1.67 1.46 1.40 1.43 1.41 1.43 1.48 1.46 1.37 1.36 1.42 1.49
1.43 1.51 1.49 1.56 1.68 1.63 1.55 1.56 1.48 1.52 1.62 1.59 1.53 1.48 1.56 1.63 1.71 1.84 2.04 1.92 1.90 1.93 2.04 2.08 2.08 2.05 2.05 1.96 1.90 1.87 1.85 1.73 1.60 1.43 1.41 1.42 1.48 1.47 1.39 1.36 1.42 1.48 1.56
1.47 1.56 1.53 1.59 1.52 1.61 1.57 1.52 1.68 1.43 1.70 1.53 1.62 1.60 1.73 1.79 1.68 1.90 1.84 1.90 1.86 1.82 2.05 2.07 1.96 2.11 2.09 2.04 2.04 2.01 1.94 1.90 1.79 1.57 1.40 1.45 1.53 1.47 1.41 1.44 1.49 1.54 1.56
1.50 1.48 1.43 1.53 1.51 1.54 1.67 1.59 1.42 1.73 1.40 1.64 1.43 1.43 1.37 1.68 1.71 1.84 1.79 1.91 1.83 1.92 2.02 2.00 2.13 2.19 2.12 2.12 2.11 2.02 1.97 1.98 1.99 1.90 1.77 1.48 1.47 1.53 1.54 1.53 1.53 1.54 1.55
1.51 1.37 1.48 1.40 1.34 1.57 2.13 1.60 1.68 1.64 1.61 1.95 1.74 1.87 1.74 1.75 1.82 1.77 1.73 1.79 1.81 1.80 1.85 2.03 2.57 2.07 1.98 2.10 2.15 2.11 2.08 1.99 1.99 1.99 1.95 1.89 1.80 1.59 1.54 1.57 1.60 1.63 1.65
1.65 1.58 1.69 1.70 1.52 1.55 1.50 1.61 1.61 1.63 1.56 1.56 1.24 1.32 1.61 1.86 1.92 1.66 1.47 1.82 1.56 2.02 2.02 1.86 2.02 2.05 2.08 2.12 2.29 2.19 2.05 2.07 1.98 1.96 1.94 1.91 1.93 1.96 1.92 1.75 1.57 1.54 1.57
1.80 1.67 1.69 1.83 1.91 1.52 1.83 1.69 1.61 1.62 1.56 1.82 1.52 1.34 1.26 1.44 1.32 1.71 1.62 1.65 1.44 1.69 1.65 1.95 1.83 1.98 1.99 2.18 2.36 2.26 2.12 2.06 2.07 2.01 2.02 2.00 1.93 1.90 1.91 1.98 2.00 1.92 1.78
1.96 1.89 1.75 1.75 1.76 1.70 1.84 1.75 1.55 1.72 1.77 1.51 1.55 1.59 1.47 1.43 1.20 1.22 1.55 1.80 1.60 1.87 1.67 1.63 2.08 2.39 2.05 2.11 2.14 2.19 2.09 2.02 2.09 2.06 2.03 2.04 2.04 1.99 2.00 2.00 1.96 1.99 2.06
2.01 1.85 1.72 1.71 1.72 1.63 1.54 1.49 1.68 1.62 1.76 1.60 1.47 1.36 1.42 1.41 1.45 1.27 1.17 1.47 1.62 1.73 1.55 1.67 1.68 1.78 2.13 1.91 2.75 2.01 2.02 2.02 2.03 2.08 2.12 2.04 2.01 2.00 2.03 2.04 2.02 2.00 1.98
1.96 1.91 1.74 1.66 1.60 1.55 1.54 1.62 1.58 1.50 1.46 1.55 1.50 1.42 1.32 1.32 1.35 1.39 1.32 1.35 1.34 1.39 1.56 1.50 1.70 1.94 1.96 1.87 1.95 2.02 2.01 2.15 2.15 2.08 2.15 2.14 2.06 2.08 2.05 2.03 2.04 2.01 2.01
1.79 1.84 1.80 1.75 1.71 1.65 1.68 1.63 1.57 1.51 1.51 1.40 1.38 1.37 1.36 1.33 1.36 1.35 1.25 1.20 1.23 1.33 1.38 1.49 1.68 1.83 1.67 2.18 2.11 1.84 2.02 2.12 2.16 2.19 2.13 2.23 2.10 2.08 2.11 2.14 2.05 2.01 1.98
1.80 1.92 1.91 1.80 1.75 1.77 1.74 1.71 1.60 1.61 1.62 1.78 1.57 1.42 1.42 1.48 1.37 1.35 1.29 1.25 1.20 1.24 1.30 1.37 1.46 1.82 1.95 1.89 1.99 1.77 1.88 2.02 2.10 2.13 2.16 2.17 2.10 2.07 2.09 2.11 2.07 1.98 1.91
1.55 1.77 1.87 1.83 1.77 1.82 1.78 1.77 1.64 1.68 1.73 1.70 1.60 1.60 1.53 1.50 1.53 1.44 1.41 1.49 1.28 1.15 1.23 1.48 1.55 1.72 1.83 2.09 2.02 1.93 2.02 1.96 2.07 2.12 2.10 2.14 2.09 2.06 2.06 1.99 1.91 1.84 1.81
1.47 1.74 1.70 1.68 1.71 1.74 1.77 1.77 1.80 1.80 1.79 1.86 1.83 1.76 1.71 1.68 1.57 1.67 1.52 1.48 1.46 1.41 1.30 1.68 1.74 1.94 2.09 2.02 2.00 2.12 2.18 1.89 1.83 1.95 2.00 2.10 2.09 2.10 2.10 1.98 1.86 1.83 1.79
1.55 1.61 1.71 1.76 1.72 1.73 1.79 1.86 1.91 1.85 1.81 1.83 1.86 1.83 1.78 1.81 1.71 1.64 1.63 1.58 1.58 1.47 1.32 1.44 1.74 1.89 1.94 2.23 1.90 2.10 2.19 2.14 1.87 1.84 1.96 2.04 2.10 2.16 2.07 1.97 1.87 1.77 1.76
1.55 1.60 1.62 1.69 1.75 1.79 1.82 1.85 1.78 1.73 1.72 1.70 1.72 1.74 1.76 1.81 1.86 1.93 1.82 1.65 1.64 1.64 1.70 1.38 1.44 1.55 1.74 1.86 1.99 2.05 2.08 2.24 2.11 1.84 1.90 1.98 2.02 2.08 2.01 1.93 1.89 1.83 1.76
1.58 1.61 1.61 1.58 1.61 1.66 1.70 1.71 1.64 1.61 1.60 1.60 1.64 1.64 1.64 1.70 1.67 1.78 1.82 1.80 1.76 1.74 1.69 1.60 1.48 1.57 1.63 1.76 1.70 1.87 1.96 2.00 2.00 1.92 1.89 1.90 1.96 2.03 2.02 1.98 1.93 1.83 1.77
1.54 1.54 1.56 1.57 1.57 1.58 1.59 1.60 1.63 1.72 1.79 1.94 1.98 1.98 1.92 1.87 1.81 1.73 1.72 1.74 1.78 1.78 1.86 1.73 1.65 1.56 1.53 1.62 1.74 1.60 1.61 1.80 1.78 1.88 1.83 1.81 1.84 1.87 1.91 1.92 1.90 1.85 1.79
1.79 1.77 1.69 1.63 1.66 1.70 1.72 1.79 1.87 1.94 1.95 1.93 1.78 1.71 1.62 1.64 1.71 1.90 1.85 1.81 1.79 1.73 1.74 1.71 1.68 1.68 1.59 1.58 1.64 1.75 1.65 1.66 1.73 1.82 1.73 1.69 1.72 1.73 1.74 1.77 1.83 1.85 1.80
1.89 1.88 1.92 1.86 1.80 1.87 2.02 2.06 1.96 1.70 1.71 1.63 1.50 1.46 1.48 1.46 1.48 1.48 1.58 1.64 1.83 1.76 1.66 1.62 1.62 1.66 1.70 1.71 1.76 1.75 1.74 1.64 1.49 1.88 1.73 1.65 1.74 1.65 1.66 1.65 1.72 1.71 1.68
1.96 1.91 2.00 2.04 2.13 1.95 1.78 1.59 1.57 1.62 1.55 1.46 1.39 1.38 1.39 1.41 1.40 1.45 1.46 1.48 1.76 1.84 1.80 1.78 1.67 1.61 1.61 1.76 1.80 1.81 1.81 1.73 1.70 1.84 1.85 1.69 1.78 1.69 1.71 1.73 1.74 1.69 1.63
1.92 1.95 1.94 2.06 1.91 1.78 1.72 1.64 1.58 1.44 1.30 1.19 1.13 1.05 0.99 1.04 1.11 1.18 1.29 1.38 1.49 1.65 1.76 1.83 1.78 1.84 1.84 1.85 1.87 1.87 1.95 1.91 1.94 1.94 1.97 1.63 1.79 1.68 1.72 1.72 1.74 1.69 1.53
1.93 1.84 1.90 1.76 1.70 1.77 1.66 1.54 1.30 1.12 0.96 0.86 0.85 0.89 0.93 0.89 0.83 0.81 0.85 0.89 1.05 1.28 1.54 1.75 1.80 2.09 2.08 2.00 2.08 2.11 2.00 2.02 1.89 1.90 2.05 1.85 1.81 1.75 1.78 1.74 1.76 1.67 1.50
1.79 1.78 1.62 1.53 1.57 1.54 1.47 1.30 1.08 0.86 0.73 0.79 0.85 0.86 0.85 0.82 0.77 0.73 0.71 0.73 0.71 0.88 1.20 1.40 1.62 1.71 2.00 2.18 2.21 2.16 2.04 1.91 1.91 1.81 1.95 1.77 1.73 1.73 1.55 1.70 1.68 1.62 1.51